Terug naar catalogus

STARLINK-32080

ActiefCommunicatieVLEO
NORAD 59683·PAYLOAD·🇺🇸 United States

Gelanceerd May 8, 2024 vanaf Cape Canaveral Space Force Station

Loading…

Volgende Passages (komende 24 uur)

TLE

VersSource: CelesTrak SupGP

Epoch: Sep 14, 2026, 21:30 UTC

1 59683C 24086B   26257.89631944  .00036460  00000+0  13208-2 0  2578
2 59683  43.0024  75.2585 0001520 272.9369  77.5774 15.27556023    18

Volg STARLINK-32080 in realtime met AllMySat

Download on the App Store